Gaborone, Botswana

11:02 AM CAT on February 28, 2017 (GMT +0200)
Tlokweng | | Change Station

Elev 3212 ft 24.68 °S, 25.95 °E | Updated 27 seconds ago

Mostly Cloudy
Mostly Cloudy
72.5 °F
Feels Like 74 °F
N
0.0
Wind Variable Wind from South
Gusts 0.0 mph

Today
High -- | Low -- °F
--% Chance of Precip.
Yesterday
High -- | Low -- °F
Precip. -- in
Pressure 30.15 in
Visibility 6.2 miles
Clouds Mostly Cloudy 2100 ft
Scattered Clouds 6500 ft
Heat Index 74 °F
Dew Point 63 °F
Humidity 73%
Rainfall 0.00 in
Snow Depth Not available.
6:10 AM 6:46 PM
Waxing Crescent, 4% visible
METAR FBSK 280800Z 03010KT 010V070 9999 BKN021 SCT065 21/16 Q1021 NOSIG
Pressure 30.15 in
Visibility 6.2 miles
Clouds Mostly Cloudy 2100 ft
Scattered Clouds 6500 ft
Heat Index 74 °F
Dew Point 63 °F
Humidity 73%
Rainfall 0.00 in
Snow Depth Not available.
6:10 AM 6:46 PM
Waxing Crescent, 4% visible
METAR FBSK 280800Z 03010KT 010V070 9999 BKN021 SCT065 21/16 Q1021 NOSIG

Get Your Daily Forecast Email!

Thanks for signing up!

Be on the lookout for a verification email in your inbox.

You'll start receiving the daily forecast at 8 AM.

×

10-Day Weather Forecast

No radar image for this location.
×

Almanac

Astronomy

Feb. 28, 2017 Rise Set
Actual Time
Civil Twilight
Nautical Twilight
Astronomical Twilight
Moon
Length of Visible Light
Length of Day
Tomorrow will be .
, % of the Moon is Illuminated

Today's Extremes

Country Highs Country Lows

Community

WunderPhotos

Upload Photos

1,962,540 photos uploaded!

WunderBlog® & News

Nearby

Air Quality

  Air Quality AQ Index Pollutant
Not available.

Snow Depth

Station Depth Elevation

Earthquake Activity

City Distance Mag. Time & Date
Minimum magnitude displayed is 2.5.

Coastal Water Temperatures

Place Temperature

Stations

Nearby Weather Stations

Station Location Temp. Windchill Dew Point Humidity Wind Precip. Elev Updated Type